This is the latest recevied weather packets stored in our database for station/object OE6PLD-13. If no packets are shown the sender has not sent any weather packets the latest 10 day(s).
| Time | Temp. | Humidity | Pressure | Rain* | Wind** | Luminosity | Snow |
|---|---|---|---|---|---|---|---|
| 1778151834 | 21.67° C | 54% | 1016.5 hPa | 0.76 mm | - | 639 W/m² | - |
| 1778151650 | 21.11° C | 57% | 1016.4 hPa | 0.76 mm | - | 454 W/m² | - |
| 1778151467 | 20.56° C | 57% | 1016.4 hPa | 0.76 mm | - | 427 W/m² | - |
| 1778151284 | 20.56° C | 57% | 1016.4 hPa | 0.76 mm | - | 343 W/m² | - |
| 1778151100 | 21.11° C | 56% | 1016.8 hPa | 0.76 mm | - | 307 W/m² | - |
| 1778150917 | 21.11° C | 55% | 1016.5 hPa | 0.76 mm | - | 307 W/m² | - |
| 1778150733 | 21.11° C | 55% | 1016.6 hPa | 0.76 mm | - | 282 W/m² | - |
| 1778150550 | 20.56° C | 58% | 1016.8 hPa | 0.76 mm | - | 327 W/m² | - |
| 1778150367 | 20.56° C | 57% | 1016.6 hPa | 0.76 mm | - | 408 W/m² | - |
| 1778150183 | 21.11° C | 57% | 1016.6 hPa | 0.76 mm | - | 292 W/m² | - |
| 1778150000 | 21.11° C | 57% | 1016.6 hPa | 0.76 mm | - | 403 W/m² | - |
| 1778149817 | 21.67° C | 56% | 1016.6 hPa | 0.76 mm | - | 401 W/m² | - |
| 1778149633 | 21.11° C | 57% | 1016.6 hPa | 0.76 mm | - | 429 W/m² | - |
| 1778149450 | 20.56° C | 59% | 1016.7 hPa | 0.76 mm | - | 600 W/m² | - |
| 1778149267 | 20.56° C | 59% | 1016.9 hPa | 0.76 mm | - | 326 W/m² | - |
| 1778149083 | 20.56° C | 59% | 1016.9 hPa | 0.76 mm | - | 479 W/m² | - |
| 1778148900 | 20.56° C | 60% | 1016.8 hPa | 0.76 mm | - | 522 W/m² | - |
| 1778148717 | 20.56° C | 60% | 1017 hPa | 0.76 mm | - | 387 W/m² | - |
| 1778148533 | 20.56° C | 60% | 1017 hPa | 0.76 mm | - | 512 W/m² | - |
| 1778148350 | 20° C | 60% | 1016.8 hPa | 0.76 mm | - | 592 W/m² | - |
| 1778148167 | 20° C | 61% | 1017 hPa | 0.76 mm | - | 688 W/m² | - |
| 1778147983 | 20° C | 61% | 1017.1 hPa | 0.76 mm | - | 678 W/m² | - |
| 1778147800 | 19.44° C | 62% | 1016.8 hPa | 0.76 mm | - | 635 W/m² | - |
| 1778147616 | 19.44° C | 63% | 1017.2 hPa | 0.76 mm | - | 444 W/m² | - |
| 1778147432 | 19.44° C | 64% | 1016.9 hPa | 0.76 mm | - | 488 W/m² | - |
* Rain latest hour (hover to see other rain measurements)
** Current wind speed in m/s (hover to see current wind gust speed)